GW3060 Weather Reports


time (UTC)temp
C
wind
direction
speed
KPH
gust
KPH
rain 1hr
cm
rain 24hr
cm
rain mn
cm
humidity
%
barometer
mb
20260503010029 10 223 0.0 0.0 0.00 0.00 0.00 82 1013.4
20260503005518 10 223 0.0 0.0 0.00 0.00 0.00 81 1013.3
20260503005018 10 223 0.0 0.0 0.00 0.00 0.00 81 1013.2
20260503004518 11 223 0.0 0.0 0.00 0.00 0.00 80 1013.1
20260503004018 11 223 0.0 0.0 0.00 0.00 0.00 80 1013.0
20260503003529 11 223 0.0 0.0 0.00 0.00 0.00 80 1013.1
20260503003018 11 223 0.0 0.0 0.00 0.00 0.00 78 1012.9
20260503002518 11 223 0.0 0.0 0.00 0.00 0.00 78 1012.8
20260503002018 11 223 0.0 0.0 0.00 0.00 0.00 78 1012.8
20260503001518 11 223 0.0 0.0 0.00 0.00 0.00 77 1012.7
20260503001018 11 223 0.0 0.0 0.00 0.00 0.00 76 1012.7
20260503000518 11 223 0.0 0.0 0.00 0.00 0.00 75 1012.6
20260503000018 12 223 0.0 0.0 0.00 0.00 0.00 75 1012.6
20260502235529 12 223 0.0 0.0 0.00 0.00 0.00 74 1012.5
20260502235018 12 221 0.0 0.0 0.00 0.00 0.00 75 1012.5
20260502234518 12 164 0.0 0.0 0.00 0.00 0.00 74 1012.4
20260502234018 12 248 0.0 0.0 0.00 0.00 0.00 73 1012.3
20260502233518 12 248 0.0 0.0 0.00 0.00 0.00 73 1012.3
20260502233018 12 248 0.0 0.0 0.00 0.00 0.00 70 1012.2
20260502232518 12 248 0.0 0.0 0.00 0.00 0.00 70 1012.1
20260502232018 12 248 0.0 0.0 0.00 0.00 0.00 70 1012.0
20260502231518 12 248 0.0 0.0 0.00 0.00 0.00 69 1011.9
20260502231019 12 248 0.0 0.0 0.00 0.00 0.00 68 1011.9
20260502230518 13 248 0.0 0.0 0.00 0.00 0.00 69 1011.8
20260502230018 13 248 0.0 0.0 0.00 0.00 0.00 66 1011.9
20260502225518 13 248 0.0 0.0 0.00 0.00 0.00 65 1011.8
20260502225019 13 248 0.0 0.0 0.00 0.00 0.00 63 1011.8
20260502224518 13 248 0.0 0.0 0.00 0.00 0.00 62 1011.7
20260502224030 13 248 0.0 0.0 0.00 0.00 0.00 61 1011.7
20260502223508 13 248 0.0 0.0 0.00 0.00 0.00 60 1011.6
20260502223008 13 248 0.0 0.0 0.00 0.00 0.00 57 1011.5
20260502222508 13 248 0.0 0.0 0.00 0.00 0.00 57 1011.4
20260502222008 13 248 0.0 0.0 0.00 0.00 0.00 56 1011.3
20260502221508 13 248 0.0 3.2 0.00 0.00 0.00 56 1011.2
20260502221008 13 248 0.0 4.8 0.00 0.00 0.00 56 1011.1
20260502220508 14 248 1.6 4.8 0.00 0.00 0.00 53 1011.1
20260502220008 14 248 1.6 4.8 0.00 0.00 0.00 53 1011.1
20260502215508 14 348 1.6 3.2 0.00 0.00 0.00 54 1011.0
20260502215008 14 264 0.0 1.6 0.00 0.00 0.00 51 1011.0
20260502214508 14 264 0.0 3.2 0.00 0.00 0.00 54 1011.0
20260502214019 14 264 1.6 3.2 0.00 0.00 0.00 53 1011.0
20260502213508 14 264 1.6 4.8 0.00 0.00 0.00 54 1010.9
20260502213019 14 265 0.0 6.4 0.00 0.00 0.00 50 1011.0
20260502212519 14 237 1.6 6.4 0.00 0.00 0.00 51 1010.9
20260502212008 14 254 3.2 4.8 0.00 0.00 0.00 52 1010.9
20260502211508 14 306 1.6 4.8 0.00 0.00 0.00 51 1011.0
20260502211008 14 306 1.6 4.8 0.00 0.00 0.00 50 1011.0
20260502210530 14 272 0.0 3.2 0.00 0.00 0.00 49 1011.0
20260502210008 14 273 1.6 3.2 0.00 0.00 0.00 50 1011.1
20260502205508 14 274 0.0 3.2 0.00 0.00 0.00 52 1011.1
20260502205008 14 274 1.6 4.8 0.00 0.00 0.00 50 1011.0
20260502204508 14 274 3.2 4.8 0.00 0.00 0.00 54 1011.0
20260502204008 13 14 1.6 4.8 0.00 0.00 0.00 49 1011.1
20260502203508 14 33 1.6 3.2 0.00 0.00 0.00 55 1011.3
20260502203008 13 10 1.6 3.2 0.00 0.00 0.00 55 1011.3
20260502202531 13 6 0.0 3.2 0.00 0.00 0.00 48 1011.3
20260502202008 13 6 1.6 3.2 0.00 0.00 0.00 49 1011.4
20260502201508 13 333 1.6 3.2 0.00 0.00 0.00 53 1011.4
20260502201008 13 347 0.0 6.4 0.00 0.00 0.00 51 1011.4
20260502200508 13 347 3.2 6.4 0.00 0.00 0.00 46 1011.6
20260502200008 13 333 1.6 4.8 0.00 0.00 0.00 51 1011.7
20260502195508 13 327 1.6 6.4 0.00 0.00 0.00 51 1011.8
20260502195019 13 285 3.2 6.4 0.00 0.00 0.00 48 1011.9
20260502194508 13 338 3.2 6.4 0.00 0.00 0.00 49 1012.0
20260502194008 13 308 1.6 6.4 0.00 0.00 0.00 50 1012.1
20260502193531 13 19 1.6 4.8 0.00 0.00 0.00 51 1012.1
20260502193008 13 331 1.6 6.4 0.00 0.00 0.00 50 1012.1
20260502192508 13 252 3.2 6.4 0.00 0.00 0.00 50 1012.1
20260502192008 13 331 1.6 6.4 0.00 0.00 0.00 54 1012.2
20260502191509 13 356 3.2 9.7 0.00 0.00 0.00 52 1012.2
20260502191019 13 196 1.6 9.7 0.00 0.00 0.00 56 1012.3
20260502190508 13 294 0.0 8.0 0.00 0.00 0.00 50 1012.3
20260502190008 13 305 3.2 8.0 0.00 0.00 0.00 48 1012.4
20260502185508 13 244 1.6 4.8 0.00 0.00 0.00 52 1012.5
20260502185008 12 301 1.6 3.2 0.00 0.00 0.00 60 1012.7
20260502184519 12 300 0.0 4.8 0.00 0.00 0.00 59 1012.7
20260502184008 12 298 1.6 4.8 0.00 0.00 0.00 54 1012.8
20260502183510 12 238 0.0 4.8 0.00 0.00 0.00 59 1012.7
20260502183019 12 286 1.6 4.8 0.00 0.00 0.00 57 1012.7
20260502182508 12 263 1.6 4.8 0.00 0.00 0.00 55 1012.8
20260502182008 12 223 1.6 6.4 0.00 0.00 0.00 58 1012.7
20260502181508 12 333 3.2 9.7 0.00 0.00 0.00 56 1012.8
20260502181008 12 322 3.2 9.7 0.00 0.00 0.00 58 1012.7
20260502180508 12 321 1.6 9.7 0.00 0.00 0.00 60 1012.7
20260502170508 12 331 1.6 4.8 0.00 0.00 0.00 60 1013.4
20260502164008 11 302 1.6 6.4 0.00 0.00 0.00 62 1013.7
20260502163508 11 302 1.6 6.4 0.00 0.00 0.00 61 1013.8
20260502163019 11 276 1.6 8.0 0.00 0.00 0.00 61 1014.0
20260502162508 11 311 3.2 9.7 0.00 0.00 0.00 60 1014.0
20260502162008 11 287 4.8 9.7 0.00 0.00 0.00 59 1014.2
20260502161531 11 325 1.6 4.8 0.00 0.00 0.00 63 1014.1
20260502161009 11 323 1.6 9.7 0.00 0.00 0.00 62 1014.2
20260502160509 11 321 1.6 9.7 0.00 0.00 0.00 64 1014.3
20260502152009 11 283 1.6 4.8 0.00 0.00 0.00 64 1014.3
20260502151509 11 282 1.6 4.8 0.00 0.00 0.00 62 1014.4
20260502151009 11 240 1.6 6.4 0.00 0.00 0.00 62 1014.4
20260502150520 11 200 0.0 6.4 0.00 0.00 0.00 63 1014.3
20260502130509 11 295 0.0 4.8 0.00 0.00 0.00 73 1014.0
20260502123509 11 290 0.0 3.2 0.00 0.00 0.00 76 1013.2
20260502123009 11 290 0.0 1.6 0.00 0.00 0.00 77 1013.2
20260502122509 11 290 0.0 4.8 0.00 0.00 0.00 76 1013.3
20260502122009 11 290 0.0 4.8 0.00 0.00 0.00 78 1013.3
20260502121509 11 290 1.6 4.8 0.00 0.00 0.00 77 1013.4
20260502121009 11 281 0.0 1.6 0.00 0.00 0.00 78 1013.4
20260502120509 11 281 0.0 1.6 0.00 0.00 0.00 78 1013.3
20260502115509 10 281 1.6 4.8 0.00 0.00 0.00 77 1013.4
20260502115009 10 282 1.6 11.3 0.00 0.00 0.00 77 1013.3
20260502114509 10 281 1.6 11.3 0.00 0.00 0.00 80 1013.0
20260502114009 10 307 0.0 1.6 0.00 0.00 0.00 82 1013.0
20260502113509 10 307 0.0 1.6 0.00 0.00 0.00 81 1013.1
20260502113020 10 306 0.0 1.6 0.00 0.00 0.00 82 1013.2
20260502112509 10 306 0.0 1.6 0.00 0.00 0.00 83 1013.1
20260502112009 10 343 0.0 1.6 0.00 0.00 0.00 83 1013.1
20260502111509 10 346 0.0 3.2 0.00 0.00 0.00 85 1013.0
20260502111009 10 346 0.0 3.2 0.00 0.00 0.00 84 1013.0
20260502110509 10 346 1.6 3.2 0.00 0.00 0.00 86 1013.1
20260502110009 10 357 0.0 1.6 0.00 0.00 0.00 87 1013.1
20260502105509 10 357 0.0 1.6 0.00 0.00 0.00 87 1012.9
20260502105009 10 357 0.0 0.0 0.00 0.00 0.00 87 1012.8
20260502104509 10 357 0.0 0.0 0.00 0.00 0.00 87 1013.0
20260502104009 10 357 0.0 0.0 0.00 0.00 0.00 87 1013.0
20260502103510 10 357 0.0 0.0 0.00 0.00 0.00 87 1013.0
20260502103009 10 357 0.0 0.0 0.00 0.00 0.00 89 1013.1
20260502102509 10 357 0.0 0.0 0.00 0.00 0.00 90 1013.2
20260502102020 10 357 0.0 0.0 0.00 0.00 0.00 90 1013.1
20260502101509 10 357 0.0 0.0 0.00 0.00 0.00 90 1013.1
20260502101009 10 357 0.0 0.0 0.00 0.00 0.00 89 1013.2
20260502100509 10 357 0.0 0.0 0.00 0.00 0.00 89 1013.2
20260502091509 10 357 0.0 0.0 0.00 0.00 0.00 91 1013.2
20260502091009 10 357 0.0 0.0 0.00 0.00 0.00 91 1013.1
20260502090509 10 357 0.0 0.0 0.00 0.00 0.00 92 1012.9
20260502071510 10 357 0.0 0.0 0.00 0.00 0.00 89 1011.9
20260502071009 10 357 0.0 0.0 0.00 0.00 0.00 89 1011.9
20260502070509 10 357 0.0 0.0 0.00 0.00 0.00 89 1011.9
20260502070009 10 357 0.0 0.0 0.00 0.00 0.00 89 1011.9
20260502065509 10 357 0.0 0.0 0.00 0.00 0.00 89 1012.0
20260502065021 10 357 0.0 0.0 0.00 0.00 0.00 89 1012.0
20260502064510 10 357 0.0 0.0 0.00 0.00 0.00 88 1012.1
20260502064009 11 357 0.0 0.0 0.00 0.00 0.00 88 1012.3
20260502063509 11 357 0.0 1.6 0.00 0.00 0.00 88 1012.2
20260502063009 11 357 0.0 1.6 0.00 0.00 0.00 88 1012.4
20260502062509 11 357 0.0 1.6 0.00 0.00 0.00 88 1012.3
20260502062009 11 357 0.0 0.0 0.00 0.00 0.00 88 1012.4
20260502061510 11 357 0.0 0.0 0.00 0.00 0.00 88 1012.5
20260502061009 11 357 0.0 0.0 0.00 0.00 0.00 88 1012.6
20260502060511 11 357 0.0 0.0 0.00 0.00 0.00 88 1012.6
20260502060009 11 357 0.0 1.6 0.00 0.00 0.00 87 1012.7
20260502055509 11 357 0.0 1.6 0.00 0.00 0.00 87 1012.7
20260502055011 11 357 0.0 3.2 0.00 0.00 0.00 87 1012.7
20260502054509 11 357 0.0 3.2 0.00 0.00 0.00 87 1012.6
20260502054009 11 357 1.6 3.2 0.00 0.00 0.00 87 1012.7
20260502053520 11 357 0.0 6.4 0.00 0.00 0.00 87 1012.6
20260502053009 11 357 1.6 6.4 0.00 0.00 0.00 87 1012.6
20260502052509 11 357 4.8 6.4 0.00 0.00 0.00 88 1012.6
20260502052009 11 201 0.0 0.0 0.00 0.00 0.00 87 1012.1
20260502051509 11 201 0.0 0.0 0.00 0.00 0.00 87 1012.1
20260502051009 11 201 0.0 0.0 0.00 0.00 0.00 87 1012.1
20260502050509 11 201 0.0 0.0 0.00 0.00 0.00 86 1012.2
20260502050020 11 201 0.0 0.0 0.00 0.00 0.00 86 1012.3
20260502045509 11 201 0.0 0.0 0.00 0.00 0.00 86 1012.3
20260502045009 11 201 0.0 0.0 0.00 0.00 0.00 86 1012.2
20260502044520 11 201 0.0 0.0 0.00 0.00 0.00 86 1012.4
20260502044020 11 201 0.0 0.0 0.00 0.00 0.00 85 1012.3
20260502043509 11 201 0.0 0.0 0.00 0.00 0.00 85 1012.3
20260502043009 11 201 0.0 0.0 0.00 0.00 0.00 84 1012.3
20260502042509 11 201 0.0 0.0 0.00 0.00 0.00 84 1012.3
20260502042010 11 201 0.0 0.0 0.00 0.00 0.00 84 1012.2
20260502041510 11 201 0.0 0.0 0.00 0.00 0.00 84 1012.2
20260502041010 11 201 0.0 1.6 0.00 0.00 0.00 84 1012.3
20260502040510 11 201 0.0 1.6 0.00 0.00 0.00 84 1012.3
20260502040010 11 201 0.0 3.2 0.00 0.00 0.00 83 1012.3
20260502035510 12 201 0.0 3.2 0.00 0.00 0.00 83 1012.4
20260502035020 12 201 1.6 3.2 0.00 0.00 0.00 84 1012.4
20260502034510 12 201 0.0 3.2 0.00 0.00 0.00 83 1012.4
20260502034010 12 201 0.0 3.2 0.00 0.00 0.00 83 1012.5
20260502033510 12 201 0.0 1.6 0.00 0.00 0.00 83 1012.6
20260502033009 12 201 0.0 0.0 0.00 0.00 0.00 82 1012.5
20260502032510 12 201 0.0 3.2 0.00 0.00 0.00 82 1012.6
20260502032010 12 201 0.0 3.2 0.00 0.00 0.00 82 1012.6
20260502031510 12 201 0.0 3.2 0.00 0.00 0.00 82 1012.7
20260502031021 12 201 0.0 3.2 0.00 0.00 0.00 82 1012.7
20260502030509 12 201 0.0 3.2 0.00 0.00 0.00 82 1012.6
20260502030009 12 201 0.0 1.6 0.00 0.00 0.00 82 1012.7
20260502025510 12 201 0.0 1.6 0.00 0.00 0.00 82 1012.7
20260502025009 12 201 0.0 1.6 0.00 0.00 0.00 82 1012.7
20260502024509 12 201 0.0 0.0 0.00 0.00 0.00 81 1012.7
20260502024010 12 201 0.0 0.0 0.00 0.00 0.00 81 1012.7
20260502023509 12 201 0.0 0.0 0.00 0.00 0.00 81 1012.7
20260502023009 12 201 0.0 1.6 0.00 0.00 0.00 81 1012.7
20260502022521 12 201 0.0 4.8 0.00 0.00 0.00 80 1012.6
20260502022032 12 201 1.6 4.8 0.00 0.00 0.00 80 1012.6
20260502021510 13 201 0.0 3.2 0.00 0.00 0.00 80 1012.6
20260502021009 13 201 0.0 3.2 0.00 0.00 0.00 80 1012.5
20260502020509 13 44 1.6 1.6 0.00 0.00 0.00 80 1012.4
20260502020010 13 44 0.0 3.2 0.00 0.00 0.00 80 1012.5
20260502015510 13 44 0.0 3.2 0.00 0.00 0.00 79 1012.5
20260502015010 13 44 0.0 3.2 0.00 0.00 0.00 79 1012.7
20260502014510 13 44 1.6 3.2 0.00 0.00 0.00 78 1012.7
20260502014021 13 44 0.0 3.2 0.00 0.00 0.00 77 1012.7
20260502013510 13 44 0.0 1.6 0.00 0.00 0.00 77 1012.7
20260502013010 13 44 0.0 3.2 0.00 0.00 0.00 76 1012.5
20260502012532 13 44 1.6 4.8 0.00 0.00 0.00 76 1012.6
20260502012010 13 44 1.6 4.8 0.00 0.00 0.00 76 1012.4
20260502011510 13 75 0.0 4.8 0.00 0.00 0.00 75 1012.4
20260502011010 13 75 0.0 4.8 0.00 0.00 0.00 75 1012.4
20260502010510 13 177 1.6 4.8 0.00 0.00 0.00 75 1012.4